This demonstration page uses our WeatherBlox Daily Observations layout. Learn more.

Left ArrowRight Arrow

34.02893, -84.19858

Hourly Observations for August 25, 2015

Temp ( °F °C ) Dew Point ( °F °C ) Humidity (%) Winds ( mph kmh ) Pressure ( in mb ) Visibility ( mi km ) Precip ( " mm )
12:53 am 00:53 Clear 74 23.3 62 16.7 67 67 NW 7 11 29.91 1013 10 16 0.00 0.00
1:53 am 01:53 Clear 71 21.7 62 16.7 73 73 NW 5 7 29.90 1013 10 16 0.00 0.00
2:53 am 02:53 Clear 70 21.1 62 16.7 76 76 WNW 3 6 29.89 1012 10 16 0.00 0.00
3:53 am 03:53 Clear 68 20 60 15.6 76 76 NW 7 11 29.89 1012 10 16 0.00 0.00
4:53 am 04:53 Clear 67 19.4 59 15 76 76 NW 9 15 29.88 1012 10 16 0.00 0.00
5:53 am 05:53 Clear 66 18.9 60 15.6 81 81 W 6 9 29.89 1012 10 16 0.00 0.00
6:53 am 06:53 Clear 64 17.8 60 15.6 87 87 W 3 6 29.91 1013 10 16 0.00 0.00
7:53 am 07:53 Sunny 65 18.3 59 15 81 81 NW 7 11 29.92 1013 10 16 0.00 0.00
8:53 am 08:53 Sunny 68 20 59 15 73 73 NW 10 17 29.92 1013 10 16 0.00 0.00
9:53 am 09:53 Sunny 71 21.7 59 15 66 66 NW 9 15 29.93 1014 10 16 0.00 0.00
10:53 am 10:53 Sunny 75 23.9 59 15 58 58 WNW 9 15 29.93 1014 10 16 0.00 0.00
11:53 am 11:53 Sunny 78 25.6 60 15.6 54 54 WNW 7 11 29.93 1014 10 16 0.00 0.00
12:53 pm 12:53 Sunny 80 26.7 60 15.6 51 51 W 12 19 29.93 1013 10 16 0.00 0.00
1:53 pm 13:53 Sunny 82 27.8 60 15.6 47 47 NNW 7 11 29.92 1013 10 16 0.00 0.00
2:53 pm 14:53 Sunny 82 27.8 59 15 46 46 WNW 10 17 29.91 1013 10 16 0.00 0.00
3:53 pm 15:53 Sunny 83 28.3 59 15 44 44 WNW 9 15 29.90 1012 10 16 0.00 0.00
4:53 pm 16:53 Sunny 84 28.9 58 14.4 41 41 WNW 15 24 29.89 1012 10 16 0.00 0.00
5:53 pm 17:53 Sunny 82 27.8 58 14.4 44 44 NW 10 17 29.89 1012 10 16 0.00 0.00
6:53 pm 18:53 Sunny 80 26.7 58 14.4 47 47 NNW 9 15 29.90 1012 10 16 0.00 0.00
7:53 pm 19:53 Sunny 76 24.4 55 12.8 48 48 NW 12 19 29.90 1013 10 16 0.00 0.00
8:53 pm 20:53 Clear 74 23.3 55 12.8 52 52 NW 10 17 29.92 1013 10 16 0.00 0.00
9:53 pm 21:53 Clear 71 21.7 56 13.3 59 59 NNW 8 13 29.93 1014 10 16 0.00 0.00
10:53 pm 22:53 Clear 71 21.7 56 13.3 59 59 NW 7 11 29.93 1014 10 16 0.00 0.00
11:53 pm 23:53 Clear 68 20 56 13.3 65 65 NW 8 13 29.93 1014 10 16 0.00 0.00

Powered by AerisWeather